TimePDT,TemperatureF,Dew PointF,Humidity,Sea Level PressureIn,VisibilityMPH,Wind Direction,Wind SpeedMPH,Gust SpeedMPH,PrecipitationIn,Events,Conditions,WindDirDegrees,DateUTC
12:15 AM,57.2,53.6,88,29.82,10.0,North,3.5,-,N/A,,Clear,350,2013-07-01 07:15:00
12:35 AM,57.2,53.6,88,29.82,10.0,North,4.6,-,N/A,,Clear,350,2013-07-01 07:35:00
12:55 AM,55.4,53.6,94,29.82,10.0,NNW,3.5,-,N/A,,Clear,340,2013-07-01 07:55:00
1:15 AM,55.4,53.6,94,29.82,10.0,Calm,Calm,-,N/A,,Clear,0,2013-07-01 08:15:00
1:35 AM,55.4,53.6,94,29.83,10.0,Calm,Calm,-,N/A,,Clear,0,2013-07-01 08:35:00
1:55 AM,55.4,53.6,94,29.83,10.0,Calm,Calm,-,N/A,,Clear,0,2013-07-01 08:55:00
2:15 AM,55.4,53.6,94,29.83,10.0,NW,3.5,-,N/A,,Clear,320,2013-07-01 09:15:00
2:35 AM,55.4,53.6,94,29.83,10.0,Calm,Calm,-,N/A,,Clear,0,2013-07-01 09:35:00
2:55 AM,55.4,53.6,94,29.83,10.0,NW,3.5,-,N/A,,Clear,320,2013-07-01 09:55:00
3:15 AM,55.4,53.6,94,29.83,10.0,NNW,4.6,-,N/A,,Scattered Clouds,330,2013-07-01 10:15:00
3:35 AM,55.4,53.6,94,29.84,10.0,NNW,3.5,-,N/A,,Scattered Clouds,340,2013-07-01 10:35:00
3:55 AM,53.6,53.6,100,29.84,10.0,NW,3.5,-,N/A,,Mostly Cloudy,310,2013-07-01 10:55:00
4:15 AM,53.6,53.6,100,29.83,10.0,NNW,3.5,-,N/A,,Overcast,330,2013-07-01 11:15:00
4:35 AM,53.6,53.6,100,29.84,10.0,North,3.5,-,N/A,,Overcast,350,2013-07-01 11:35:00
4:55 AM,55.4,53.6,94,29.84,10.0,Calm,Calm,-,N/A,,Mostly Cloudy,0,2013-07-01 11:55:00
5:15 AM,55.4,53.6,94,29.84,10.0,Calm,Calm,-,N/A,,Scattered Clouds,0,2013-07-01 12:15:00
5:35 AM,55.4,53.6,94,29.84,10.0,Calm,Calm,-,N/A,,Partly Cloudy,0,2013-07-01 12:35:00
5:55 AM,55.4,53.6,94,29.84,10.0,West,3.5,-,N/A,,Clear,280,2013-07-01 12:55:00
6:15 AM,53.6,51.8,94,29.84,10.0,Calm,Calm,-,N/A,,Clear,0,2013-07-01 13:15:00
6:35 AM,53.6,53.6,100,29.84,10.0,Calm,Calm,-,N/A,,Clear,0,2013-07-01 13:35:00
6:55 AM,55.4,53.6,94,29.84,10.0,WNW,3.5,-,N/A,,Clear,300,2013-07-01 13:55:00
7:15 AM,57.2,55.4,94,29.85,10.0,WNW,3.5,-,N/A,,Clear,300,2013-07-01 14:15:00
7:35 AM,57.2,55.4,94,29.85,10.0,Calm,Calm,-,N/A,,Clear,0,2013-07-01 14:35:00
7:55 AM,59.0,55.4,88,29.84,10.0,Calm,Calm,-,N/A,,Clear,0,2013-07-01 14:55:00
8:15 AM,62.6,55.4,77,29.85,10.0,Calm,Calm,-,N/A,,Clear,0,2013-07-01 15:15:00
8:35 AM,64.4,55.4,73,29.85,10.0,Calm,Calm,-,N/A,,Clear,0,2013-07-01 15:35:00
8:55 AM,66.2,55.4,68,29.85,10.0,Calm,Calm,-,N/A,,Clear,0,2013-07-01 15:55:00
9:15 AM,68.0,55.4,64,29.85,10.0,Calm,Calm,-,N/A,,Clear,0,2013-07-01 16:15:00
9:35 AM,71.6,55.4,57,29.84,10.0,SSE,3.5,-,N/A,,Clear,150,2013-07-01 16:35:00
9:55 AM,73.4,55.4,53,29.84,10.0,SSE,3.5,-,N/A,,Clear,150,2013-07-01 16:55:00
10:15 AM,75.2,55.4,50,29.84,10.0,Calm,Calm,-,N/A,,Clear,0,2013-07-01 17:15:00
10:35 AM,77.0,57.2,50,29.85,10.0,Calm,Calm,-,N/A,,Clear,0,2013-07-01 17:35:00
10:55 AM,78.8,59.0,51,29.85,10.0,NNW,3.5,-,N/A,,Clear,330,2013-07-01 17:55:00
11:15 AM,82.4,59.0,45,29.85,10.0,West,4.6,-,N/A,,Clear,280,2013-07-01 18:15:00
11:35 AM,84.2,59.0,42,29.85,10.0,NNE,3.5,-,N/A,,Clear,20,2013-07-01 18:35:00
11:55 AM,86.0,59.0,40,29.85,10.0,Calm,Calm,-,N/A,,Clear,0,2013-07-01 18:55:00
12:15 PM,89.6,62.6,40,29.85,10.0,Calm,Calm,-,N/A,,Clear,0,2013-07-01 19:15:00
12:35 PM,91.4,59.0,34,29.85,10.0,NW,3.5,-,N/A,,Clear,310,2013-07-01 19:35:00
12:55 PM,93.2,59.0,32,29.84,10.0,West,8.1,-,N/A,,Clear,270,2013-07-01 19:55:00
1:15 PM,95.0,59.0,30,29.84,10.0,WNW,8.1,-,N/A,,Clear,290,2013-07-01 20:15:00
1:35 PM,93.2,59.0,32,29.84,10.0,West,12.7,-,N/A,,Clear,270,2013-07-01 20:35:00
1:55 PM,93.2,59.0,32,29.84,10.0,West,12.7,-,N/A,,Clear,280,2013-07-01 20:55:00
2:15 PM,93.2,59.0,32,29.84,10.0,WNW,11.5,-,N/A,,Clear,300,2013-07-01 21:15:00
2:35 PM,93.2,57.2,30,29.83,10.0,NW,9.2,-,N/A,,Clear,310,2013-07-01 21:35:00
2:55 PM,91.4,59.0,34,29.84,10.0,NW,9.2,16.1,N/A,,Clear,310,2013-07-01 21:55:00
3:15 PM,89.6,59.0,36,29.84,10.0,NNW,10.4,-,N/A,,Clear,330,2013-07-01 22:15:00
3:35 PM,86.0,59.0,40,29.84,10.0,NW,6.9,-,N/A,,Clear,310,2013-07-01 22:35:00
3:55 PM,84.2,57.2,40,29.84,10.0,NW,6.9,-,N/A,,Clear,310,2013-07-01 22:55:00
4:15 PM,84.2,59.0,42,29.84,10.0,WNW,10.4,-,N/A,,Clear,300,2013-07-01 23:15:00
4:35 PM,82.4,59.0,45,29.83,10.0,NW,5.8,-,N/A,,Clear,310,2013-07-01 23:35:00
4:55 PM,82.4,57.2,42,29.83,10.0,WNW,9.2,-,N/A,,Clear,300,2013-07-01 23:55:00
5:15 PM,80.6,57.2,45,29.83,10.0,WNW,9.2,-,N/A,,Clear,300,2013-07-02 00:15:00
5:35 PM,80.6,57.2,45,29.83,10.0,NW,6.9,-,N/A,,Clear,310,2013-07-02 00:35:00
5:55 PM,78.8,57.2,47,29.83,10.0,NW,5.8,-,N/A,,Clear,310,2013-07-02 00:55:00
6:15 PM,78.8,57.2,47,29.83,10.0,NW,4.6,-,N/A,,Clear,310,2013-07-02 01:15:00
6:35 PM,77.0,57.2,50,29.82,10.0,NW,6.9,-,N/A,,Clear,320,2013-07-02 01:35:00
6:55 PM,75.2,57.2,53,29.83,10.0,NW,5.8,-,N/A,,Clear,310,2013-07-02 01:55:00
7:15 PM,75.2,57.2,53,29.83,10.0,NW,6.9,-,N/A,,Clear,310,2013-07-02 02:15:00
7:35 PM,73.4,55.4,53,29.83,10.0,NW,4.6,-,N/A,,Clear,310,2013-07-02 02:35:00
7:55 PM,69.8,55.4,60,29.83,10.0,NW,6.9,-,N/A,,Clear,320,2013-07-02 02:55:00
8:15 PM,66.2,55.4,68,29.83,10.0,WNW,8.1,-,N/A,,Clear,300,2013-07-02 03:15:00
8:35 PM,64.4,53.6,68,29.83,10.0,WNW,8.1,-,N/A,,Clear,300,2013-07-02 03:35:00
8:55 PM,64.4,53.6,68,29.84,10.0,WNW,6.9,-,N/A,,Clear,300,2013-07-02 03:55:00
9:15 PM,62.6,53.6,72,29.85,10.0,NW,3.5,-,N/A,,Clear,320,2013-07-02 04:15:00
9:35 PM,62.6,53.6,72,29.85,10.0,NW,4.6,-,N/A,,Clear,320,2013-07-02 04:35:00
9:55 PM,60.8,53.6,77,29.85,10.0,NNW,6.9,-,N/A,,Clear,340,2013-07-02 04:55:00
10:15 PM,60.8,53.6,77,29.86,10.0,Calm,Calm,-,N/A,,Clear,0,2013-07-02 05:15:00
10:35 PM,60.8,55.4,82,29.84,10.0,NW,4.6,-,N/A,,Clear,310,2013-07-02 05:35:00
10:55 PM,59.0,55.4,88,29.86,10.0,NNW,3.5,-,N/A,,Clear,340,2013-07-02 05:55:00
11:15 PM,59.0,55.4,88,29.86,10.0,NNW,3.5,-,N/A,,Clear,330,2013-07-02 06:15:00
11:35 PM,60.8,55.4,82,29.86,7.0,West,3.5,-,N/A,,Clear,280,2013-07-02 06:35:00
11:55 PM,60.8,55.4,82,29.85,10.0,NNW,4.6,-,N/A,,Clear,330,2013-07-02 06:55:00